STARLINK-1900 (47176 NORAD) Tracking and Keplerian Element Data

This shows tracking and keplerian element data for the satellite.

Feedback or suggestion? Click here.




ElementValue
Catalog47176
NameSTARLINK-1900
Epoch Orbit1022
Epoch Day21.16668981
Epoch Year2021
RAAN72.9021
Inclination53.0554
Eccentricity0.0001505
Argument of Perigee46.4067
Mean Anonmoly15.4688
Mean Motion15.62740583
Decay Rate0.0003182
L11 47176U 20088BG 21021.16668981 .00031820 00000-0 35216-3 0 9998
L22 47176 53.0554 72.9021 0001505 46.4067 15.4688 15.62740583 10226

Live tracking and technical data element details for STARLINK-1900 (NORAD 47176). STARLINK-1900 can be tracked NOW for your location showing map with azimuth and elevation plus other details from your city location.

Track the satellite on the map from your city or location and see movement details for azimuth, elevation, latitude, longitude, range, height, and movement on the map or in text.







IsCatalogInMostPopularTable: catalog: 47176, numindb: 29
Update: records affected: 1



GetName: 47176 STARLINK-1900

Hit Count: updated at: Fri, 22 Jan 2021 16:53:04 GMT